Harlingen, TX

8:43 AM CDT on April 24, 2018 (GMT -0500)
Valley International

Weather History for KHRL - September, 2013

Change the Weather History Date:

Monday, September 2, 2013

  Actual Average Record
Temperature  
Mean Temperature 83 °F 84 °F  
Max Temperature 92 °F 94 °F 104 °F (1928)
Min Temperature 74 °F 74 °F 63 °F (1915)
Degree Days  
Heating Degree Days 0 0  
Month to date heating degree days 0 0  
Since 1 July heating degree days 0 0  
Cooling Degree Days 18 19  
Month to date cooling degree days 38 38  
Year to date cooling degree days 3055 2962  
Growing Degree Days 31 (Base 50)    
Moisture  
Dew Point 73 °F    
Average Humidity 77    
Maximum Humidity 94    
Minimum Humidity 59    
Precipitation  
Precipitation 1.08 in 0.13 in 2.61 in (1968)
Month to date precipitation 1.08 0.25  
Year to date precipitation 12.92 14.46  
Sea Level Pressure  
Sea Level Pressure 29.89 in    
Wind  
Wind Speed 9 mph (ESE)    
Max Wind Speed 31 mph    
Max Gust Speed 35 mph    
Visibility 8 miles    
Events Rain    
T = Trace of Precipitation, MM = Missing Value Source: NWS Daily Summary

Daily Weather History Graph

Daily Weather History Graph

Search for Another Location

Airport or City:

Astronomy

Sep. 02, 2013 Rise Set
Actual Time 7:11 AM CDT 7:48 PM CDT
Civil Twilight 6:47 AM CDT 8:12 PM CDT
Nautical Twilight 6:20 AM CDT 8:39 PM CDT
Astronomical Twilight 5:52 AM CDT 9:07 PM CDT
Moon 4:38 AM CDT (9/2) 5:56 PM CDT (9/2)
Length of Visible Light 13h 24m
Length of Day
12h 37m
Waning Crescent, 8% of the Moon is Illuminated
Sep 2
Waning Crescent
Sep 5
New
Sep 12
First Quarter
Sep 19
Full
Sep 26
Last Quarter

Hourly Weather History & Observations

Time (CDT) Temp. Heat Index Dew Point Humidity Pressure Visibility Wind Dir Wind Speed Gust Speed Precip Events Conditions
12:52 AM 78.1 °F - 73.9 °F 87% 29.90 in 10.0 mi SSE 6.9 mph - N/A   Clear
1:52 AM 77.0 °F - 73.9 °F 90% 29.89 in 10.0 mi SSE 6.9 mph - N/A   Clear
2:52 AM 75.9 °F - 73.9 °F 94% 29.89 in 10.0 mi SSE 5.8 mph - N/A   Clear
3:52 AM 75.9 °F - 73.9 °F 94% 29.88 in 10.0 mi Calm Calm - N/A   Clear
4:52 AM 75.9 °F - 73.0 °F 91% 29.88 in 10.0 mi Calm Calm - N/A   Clear
5:52 AM 75.9 °F - 73.9 °F 94% 29.88 in 10.0 mi SE 5.8 mph - N/A   Clear
6:52 AM 75.9 °F - 73.9 °F 94% 29.89 in 10.0 mi Calm Calm - N/A   Clear
7:52 AM 77.0 °F - 75.0 °F 94% 29.90 in 10.0 mi SE 5.8 mph - N/A   Clear
8:52 AM 84.0 °F 93.7 °F 77.0 °F 79% 29.91 in 10.0 mi SSE 9.2 mph - N/A   Clear
9:52 AM 87.1 °F 96.3 °F 75.0 °F 67% 29.91 in 10.0 mi South 12.7 mph - N/A   Partly Cloudy
10:52 AM 88.0 °F 95.6 °F 73.0 °F 61% 29.93 in 10.0 mi South 9.2 mph - N/A   Scattered Clouds
11:52 AM 89.1 °F 97.0 °F 73.0 °F 59% 29.93 in 10.0 mi South 11.5 mph 16.1 mph N/A   Mostly Cloudy
12:52 PM 84.9 °F 90.7 °F 72.0 °F 65% 29.92 in 10.0 mi SSW 12.7 mph - 0.00 in   Overcast
1:52 PM 86.0 °F 93.8 °F 73.9 °F 67% 29.91 in 10.0 mi NE 9.2 mph - 0.03 in Rain Light Rain
2:28 PM 80.6 °F 86.2 °F 75.2 °F 84% 29.90 in 1.8 mi NE 16.1 mph - 0.17 in Rain Heavy Rain
2:38 PM 78.8 °F - 73.4 °F 83% 29.89 in 3.0 mi NNE 18.4 mph 32.2 mph 0.25 in Rain Light Rain
2:52 PM 78.1 °F - 73.0 °F 84% 29.90 in 2.5 mi ENE 13.8 mph - 0.40 in Rain Heavy Rain
2:57 PM 78.8 °F - 73.4 °F 83% 29.90 in 1.2 mi NE 13.8 mph - 0.12 in Rain Heavy Rain
3:26 PM 73.4 °F - 69.8 °F 88% 29.88 in 1.2 mi ENE 31.1 mph 34.5 mph 0.54 in Rain Heavy Rain
3:39 PM 75.2 °F - 69.8 °F 83% 29.87 in 3.0 mi NE 13.8 mph 26.5 mph 0.65 in Rain Light Rain
3:52 PM 78.1 °F - 70.0 °F 76% 29.86 in 10.0 mi East 15.0 mph 24.2 mph 0.65 in Rain Light Rain
4:52 PM 87.1 °F 97.3 °F 75.9 °F 69% 29.85 in 10.0 mi East 13.8 mph - 0.00 in   Scattered Clouds
5:52 PM 88.0 °F 93.8 °F 71.1 °F 57% 29.85 in 10.0 mi SE 19.6 mph - N/A   Clear
6:52 PM 88.0 °F 95.6 °F 73.0 °F 61% 29.84 in 10.0 mi SE 16.1 mph 23.0 mph N/A   Partly Cloudy
7:52 PM 84.0 °F 89.6 °F 72.0 °F 67% 29.85 in 10.0 mi East 6.9 mph - N/A   Clear
8:52 PM 78.1 °F - 73.0 °F 84% 29.89 in 10.0 mi East 5.8 mph - N/A   Clear
9:52 PM 78.1 °F - 75.0 °F 90% 29.91 in 10.0 mi East 5.8 mph - N/A   Clear
10:52 PM 77.0 °F - 73.9 °F 90% 29.92 in 10.0 mi SSE 5.8 mph - N/A   Clear
11:52 PM 75.9 °F - 73.0 °F 91% 29.92 in 10.0 mi SE 6.9 mph - N/A   Clear